Regional Weather Roundup
Issued by NWS

Home | Current Version | Previous Version | Graphics & Text | Print | Product List | Glossary On
Versions: 1 2 3 4 5 6 7 8 9 10 11 12 13 14 15 16 17 18 19 20 21 22 23 24 25 26 27
000
ASUS45 KSLC 231710
RWRUT

UTAH REGIONAL WEATHER ROUNDUP
NATIONAL WEATHER SERVICE SALT LAKE CITY UT
1100 AM MDT TUE AUG 23 2016

UTZ001>011-023>025-231800-

NORTHERN UTAH

CITY           SKY/WX    TMP DP  RH WIND       PRES   REMARKS
BRIGHAM CITY     N/A     75  31  20 SW3       30.10S
DUGWAY         PTSUNNY   82  40  22 W7        30.12R
HILL AFB       MOSUNNY   77  40  26 S8        30.12S
LOGAN          MOSUNNY   70  26  19 E3        30.11F
OGDEN          MOSUNNY   80  40  23 S8        30.10R
PROVO AIRPORT  PTSUNNY   73  45  35 VRB3      30.12S
SALT LAKE CITY PTSUNNY   81  41  24 VRB6      30.08S
VERNAL         SUNNY     71  44  37 VRB3      30.16F
WENDOVER       SUNNY     77  30  18 S5        30.11S
HEBER CITY     PTSUNNY   64  41  42 CALM      30.17S
WEST JORDAN    SUNNY     79  44  28 S10       30.12S

$$

UTZ012>022-026-027-231800-

SOUTHERN/CENTRAL UTAH

CITY           SKY/WX    TMP DP  RH WIND       PRES   REMARKS
BLANDING       PTSUNNY   69  47  45 S6        30.31R
BRYCE CANYON   CLOUDY    61  47  59 SE8       30.36R
CEDAR CITY     CLOUDY    67  51  56 SW7       30.23R
DELTA          PTSUNNY   77  39  25 S7        30.15R
MILFORD        CLOUDY    71  51  49 S15       30.18R
MOAB/CYNLANDS  CLOUDY    70  53  54 S6        30.15R
PRICE          MOSUNNY   71  44  37 SE9       30.21S
ST GEORGE      PTSUNNY   77  54  44 N5        30.15R

$$

REGIONAL REPORTS     COLORADO/ARIZONA

CITY           SKY/WX    TMP DP  RH WIND       PRES   REMARKS
CRAIG, CO      SUNNY     73  40  30 NE6       30.22S
GRAND JUNCTION CLOUDY    70  47  43 S7        30.18R
RIFLE          CLOUDY    65  49  56 CALM      30.23S
MONTROSE       CLOUDY    65  46  50 W3        30.26R
CORTEZ         SUNNY     74  49  41 CALM      30.22S
PAGE, AZ       CLOUDY    68  56  65 CALM      30.18R
GRAND CANYON   PTSUNNY   66  48  52 SW10      30.31S
KINGMAN        MOSUNNY   70  57  63 CALM      30.16R
FLAGSTAFF      CLOUDY    57  49  74 SW8       30.35R

$$

REGIONAL REPORTS    NEVADA/IDAHO/WYOMING

CITY           SKY/WX    TMP DP  RH WIND       PRES   REMARKS
LAS VEGAS, NV  MOSUNNY   82  58  43 E3        30.06R
ELY            PTSUNNY   66  43  43 S6        30.27R
ELKO           SUNNY     79  32  18 W13       30.15S
POCATELLO, ID  SUNNY     70  27  20 SW20G26   30.13R
BURLEY         SUNNY     66  32  28 W16G24    30.12S
EVANSTON, WY   CLOUDY    73  32  22 W14G22    30.25S
ROCK SPRINGS   CLOUDY    68  12  11 W9        30.22S

$$




USA.gov is the U.S. government's official web portal to all federal, state and local government web resources and services.